When you browse on this site, cookies collect data to enhance your experience and personalize the content and advertising you see.
Visit our Privacy Policy to learn more. By continuing to use the site, you agree to this use of cookies and data.
  • In Latvia
  • List of Countries
  • For 7 days
  • Water Temperature
  • Weather Map
  • Weather Widgets
  • user-avatar
    Login

    Hourly Weather Buffalo

    Today, 30 May, Saturday

    Time Temperature Precipitation Wind Pressure Humidity
    00:00 +13°C° 0 mm 4 mps 743 mmHg 87%
    01:00 +13°C° 0 mm 4 mps 744 mmHg 88%
    02:00 +13°C° 0 mm 3 mps 744 mmHg 87%
    03:00 +12°C° 0 mm 3 mps 744 mmHg 87%
    04:00 +13°C° 0 mm 2 mps 744 mmHg 87%
    05:00 +13°C° 0 mm 3 mps 744 mmHg 87%
    06:00 +14°C° 0 mm 4 mps 744 mmHg 87%
    07:00 +15°C° 0 mm 5 mps 744 mmHg 87%
    08:00 +15°C° 0.2 mm 5 mps 744 mmHg 82%
    09:00 +16°C° 0.2 mm 6 mps 744 mmHg 78%
    10:00 +17°C° 0.2 mm 6 mps 744 mmHg 74%
    11:00 +17°C° 0.2 mm 6 mps 744 mmHg 72%
    12:00 +17°C° 0.2 mm 7 mps 744 mmHg 71%
    13:00 +16°C° 0.2 mm 7 mps 744 mmHg 70%
    14:00 +16°C° 0.1 mm 6 mps 744 mmHg 69%
    15:00 +15°C° 0.1 mm 6 mps 744 mmHg 69%
    16:00 +15°C° 0.1 mm 6 mps 745 mmHg 68%
    17:00 +14°C° 0 mm 6 mps 745 mmHg 65%
    18:00 +14°C° 0 mm 6 mps 746 mmHg 62%
    19:00 +14°C° 0 mm 5 mps 746 mmHg 59%
    20:00 +12°C° 0 mm 5 mps 747 mmHg 62%
    21:00 +10°C° 0 mm 5 mps 747 mmHg 64%
    22:00 +10°C° 0 mm 4 mps 748 mmHg 66%
    23:00 +10°C° 0 mm 4 mps 748 mmHg 69%

    Tomorrow, 31 May, Sunday

    Time Temperature Precipitation Wind Pressure Humidity
    00:00 +9°C° 0 mm 3 mps 748 mmHg 72%
    01:00 +8°C° 0 mm 3 mps 748 mmHg 75%
    02:00 +8°C° 0 mm 2 mps 748 mmHg 77%
    03:00 +7°C° 0 mm 2 mps 749 mmHg 79%
    04:00 +7°C° 0 mm 2 mps 749 mmHg 81%
    05:00 +8°C° 0 mm 2 mps 749 mmHg 78%
    06:00 +9°C° 0 mm 3 mps 750 mmHg 75%
    07:00 +10°C° 0 mm 3 mps 750 mmHg 72%
    08:00 +11°C° 0 mm 3 mps 751 mmHg 65%
    09:00 +12°C° 0 mm 3 mps 751 mmHg 58%
    10:00 +13°C° 0 mm 3 mps 751 mmHg 51%
    11:00 +14°C° 0 mm 3 mps 751 mmHg 48%
    12:00 +14°C° 0 mm 4 mps 750 mmHg 45%
    13:00 +15°C° 0 mm 4 mps 750 mmHg 43%
    14:00 +15°C° 0 mm 4 mps 750 mmHg 47%
    15:00 +14°C° 0 mm 5 mps 750 mmHg 52%
    16:00 +14°C° 0 mm 6 mps 749 mmHg 56%
    17:00 +14°C° 0 mm 5 mps 749 mmHg 60%
    18:00 +13°C° 0 mm 5 mps 749 mmHg 63%
    19:00 +13°C° 0 mm 5 mps 750 mmHg 66%
    20:00 +12°C° 0.1 mm 4 mps 750 mmHg 65%
    21:00 +12°C° 0.1 mm 4 mps 750 mmHg 65%
    22:00 +12°C° 0.1 mm 3 mps 750 mmHg 64%
    23:00 +11°C° 0.3 mm 4 mps 750 mmHg 69%

    Day after tomorrow, 1 June, Monday

    Time Temperature Precipitation Wind Pressure Humidity
    00:00 +11°C° 0.3 mm 4 mps 750 mmHg 74%
    01:00 +10°C° 0.3 mm 4 mps 750 mmHg 78%
    02:00 +10°C° 0 mm 4 mps 750 mmHg 79%
    03:00 +9°C° 0 mm 3 mps 750 mmHg 79%
    04:00 +8°C° 0 mm 2 mps 751 mmHg 79%
    05:00 +9°C° 0 mm 2 mps 751 mmHg 77%
    06:00 +10°C° 0 mm 2 mps 751 mmHg 75%
    07:00 +12°C° 0 mm 2 mps 752 mmHg 73%
    08:00 +14°C° 0 mm 2 mps 752 mmHg 67%
    09:00 +14°C° 0 mm 3 mps 752 mmHg 60%
    10:00 +17°C° 0 mm 3 mps 752 mmHg 53%
    11:00 +17°C° 0.1 mm 4 mps 752 mmHg 56%
    12:00 +17°C° 0.1 mm 5 mps 751 mmHg 59%
    13:00 +17°C° 0.1 mm 6 mps 751 mmHg 61%
    14:00 +17°C° 0.1 mm 6 mps 751 mmHg 61%
    15:00 +17°C° 0.1 mm 6 mps 750 mmHg 61%
    16:00 +17°C° 0.1 mm 7 mps 750 mmHg 61%
    17:00 +17°C° 0 mm 6 mps 750 mmHg 64%
    18:00 +16°C° 0 mm 5 mps 750 mmHg 67%
    19:00 +15°C° 0 mm 5 mps 750 mmHg 70%
    20:00 +14°C° 0 mm 4 mps 750 mmHg 70%
    21:00 +13°C° 0 mm 4 mps 750 mmHg 69%
    22:00 +13°C° 0 mm 4 mps 750 mmHg 68%
    23:00 +13°C° 0 mm 3 mps 749 mmHg 66%

    2 June, Tuesday

    Time Temperature Precipitation Wind Pressure Humidity
    00:00 +13°C° 0 mm 3 mps 749 mmHg 63%
    01:00 +13°C° 0 mm 3 mps 749 mmHg 60%
    02:00 +13°C° 0.1 mm 4 mps 749 mmHg 62%
    03:00 +13°C° 0.1 mm 4 mps 748 mmHg 65%
    04:00 +13°C° 0.1 mm 5 mps 748 mmHg 68%
    05:00 +13°C° 0.3 mm 5 mps 748 mmHg 73%
    06:00 +12°C° 0.3 mm 5 mps 747 mmHg 78%
    07:00 +12°C° 0.3 mm 5 mps 746 mmHg 83%
    08:00 +12°C° 2.4 mm 5 mps 746 mmHg 85%
    09:00 +12°C° 2.4 mm 5 mps 745 mmHg 87%
    10:00 +12°C° 2.4 mm 5 mps 744 mmHg 89%
    11:00 +13°C° 2.3 mm 5 mps 744 mmHg 89%
    12:00 +14°C° 2.3 mm 6 mps 743 mmHg 89%
    13:00 +14°C° 2.3 mm 6 mps 743 mmHg 89%
    14:00 +15°C° 1 mm 6 mps 742 mmHg 90%
    15:00 +15°C° 1 mm 6 mps 742 mmHg 91%
    16:00 +15°C° 1 mm 6 mps 741 mmHg 92%
    17:00 +16°C° 0.3 mm 5 mps 741 mmHg 94%
    18:00 +17°C° 0.3 mm 5 mps 741 mmHg 95%
    19:00 +18°C° 0.3 mm 4 mps 740 mmHg 96%
    20:00 +17°C° 0.2 mm 5 mps 740 mmHg 96%
    21:00 +19°C° 0.2 mm 5 mps 740 mmHg 97%
    22:00 +19°C° 0.2 mm 5 mps 740 mmHg 98%
    23:00 +19°C° 0.2 mm 5 mps 740 mmHg 98%

    3 June, Wednesday

    Time Temperature Precipitation Wind Pressure Humidity
    00:00 +19°C° 0.2 mm 4 mps 739 mmHg 98%
    01:00 +19°C° 0.2 mm 4 mps 739 mmHg 98%
    02:00 +19°C° 0 mm 4 mps 740 mmHg 96%
    03:00 +18°C° 0 mm 4 mps 740 mmHg 95%
    04:00 +18°C° 0 mm 4 mps 740 mmHg 94%
    05:00 +18°C° 0 mm 4 mps 740 mmHg 92%
    06:00 +18°C° 0 mm 4 mps 741 mmHg 90%
    07:00 +18°C° 0 mm 4 mps 741 mmHg 88%
    08:00 +20°C° 0 mm 4 mps 741 mmHg 82%
    09:00 +21°C° 0 mm 4 mps 742 mmHg 77%
    10:00 +22°C° 0 mm 4 mps 742 mmHg 72%
    11:00 +22°C° 0 mm 4 mps 742 mmHg 71%
    12:00 +23°C° 0 mm 4 mps 742 mmHg 71%
    13:00 +23°C° 0 mm 4 mps 742 mmHg 70%
    14:00 +23°C° 0 mm 4 mps 742 mmHg 70%
    15:00 +24°C° 0 mm 3 mps 741 mmHg 71%
    16:00 +24°C° 0 mm 3 mps 741 mmHg 71%
    17:00 +23°C° 0 mm 2 mps 741 mmHg 75%
    18:00 +22°C° 0 mm 1 mps 740 mmHg 78%
    19:00 +20°C° 0 mm 0 mps 740 mmHg 81%
    20:00 +21°C° 0 mm 1 mps 740 mmHg 83%
    21:00 +20°C° 0 mm 1 mps 740 mmHg 84%
    22:00 +19°C° 0 mm 2 mps 739 mmHg 86%
    23:00 +19°C° 0.8 mm 3 mps 738 mmHg 89%

    4 June, Thursday

    Time Temperature Precipitation Wind Pressure Humidity
    00:00 +19°C° 0.8 mm 3 mps 738 mmHg 91%
    01:00 +19°C° 0.8 mm 4 mps 737 mmHg 93%
    02:00 +20°C° 1.6 mm 5 mps 736 mmHg 94%
    03:00 +20°C° 1.6 mm 6 mps 735 mmHg 95%
    04:00 +20°C° 1.6 mm 7 mps 734 mmHg 96%
    05:00 +20°C° 0.8 mm 6 mps 735 mmHg 96%
    06:00 +19°C° 0.8 mm 6 mps 735 mmHg 96%
    07:00 +19°C° 0.8 mm 6 mps 736 mmHg 95%
    08:00 +17°C° 0.1 mm 6 mps 737 mmHg 93%
    09:00 +15°C° 0.1 mm 6 mps 738 mmHg 90%
    10:00 +14°C° 0.1 mm 6 mps 739 mmHg 87%
    11:00 +13°C° 0 mm 6 mps 740 mmHg 84%
    12:00 +13°C° 0 mm 5 mps 741 mmHg 82%
    13:00 +13°C° 0 mm 5 mps 742 mmHg 80%
    14:00 +14°C° 0 mm 4 mps 742 mmHg 75%
    15:00 +15°C° 0 mm 4 mps 743 mmHg 70%
    16:00 +17°C° 0 mm 3 mps 744 mmHg 65%
    17:00 +17°C° 0 mm 2 mps 744 mmHg 67%
    18:00 +16°C° 0 mm 2 mps 744 mmHg 69%
    19:00 +16°C° 0 mm 1 mps 745 mmHg 71%
    20:00 +15°C° 0 mm 1 mps 746 mmHg 73%
    21:00 +14°C° 0 mm 1 mps 746 mmHg 76%
    22:00 +13°C° 0 mm 2 mps 747 mmHg 78%
    23:00 +13°C° 0 mm 2 mps 747 mmHg 77%
    Show more